Location: Unspecified
(0.0000°N, 0.0000°E)
Time: 11:18:57
(UTC+00:00)

Vanguard 1 - Pass Details

Date: 26 November 2019
Orbit: 651 x 3832 km, 34.3° (Epoch: 13 December)

Event Time Altitude Azimuth Distance (km) Brightness Sun altitude
Rises 22:05:11 0° 219° (SW) 5,087 14.2 -57.4°
Reaches altitude 10° 22:12:49 10° 186° (S) 4,963 13.9 -58.8°
Maximum altitude 22:16:40 11° 170° (S) 5,247 13.9 -59.5°
Drops below altitude 10° 22:21:02 10° 155° (SSE) 5,755 14.0 -60.2°
Sets 22:33:17 0° 126° (SE) 7,608 14.6 -62.3°
